Regional Weather Roundup
Issued by NWS

Home | Current Version | Previous Version | Text Only | Print | Product List | Glossary Off
Versions: 1 2 3 4 5 6 7 8 9 10 11 12 13 14 15 16 17 18 19 20 21 22 23 24 25 26 27 28 29 30 31 32 33 34 35 36 37 38 39 40 41 42 43 44 45 46 47 48 49 50

000
ASUS43 KDTX 222210
RWRMI
MICHIGAN HOURLY REGIONAL WEATHER ROUNDUP
NATIONAL WEATHER SERVICE DETROIT/PONTIAC MI
500 PM EST SAT NOV 22 2014

NOTE: "FAIR" INDICATES FEW OR NO CLOUDS BELOW 12,000 FEET WITH NO
SIGNIFICANT WEATHER AND/OR OBSTRUCTION TO VISIBILITY.

MIZ047>049-052>055-059>063-066>070-074>076-081>083-222300-
SOUTHEAST LOWER MICHIGAN

CITY           SKY/WX    TMP DP  RH WIND       PRES   REMARKS
ADRIAN         CLOUDY    45  41  86 W9        29.96F
ALMA           FOG       37  37 100 S7        29.88F VSB 1/2
ANN ARBOR      CLOUDY    44  40  85 SW10      29.95S
BAD AXE        CLOUDY    39  38  97 SW10      29.87F FOG
DETROIT CITY   CLOUDY    48  41  76 SW15G23   29.96S
DETROIT        CLOUDY    45  41  86 S13       29.97S
FLINT          FOG       43  40  89 SW8       29.91F VSB 1
GROSSE ILE     CLOUDY    43  39  87 S8        29.96S
HILLSDALE      RAIN      47  46  95 SW9G18    29.94S
HOWELL         CLOUDY    40  40  99 S7        29.91S FOG

CITY           SKY/WX    TMP DP  RH WIND       PRES   REMARKS
JACKSON        CLOUDY    46  42  86 SW12      29.93R
LAMBERTVILLE   CLOUDY    48  43  81 S8        29.97F
LANSING        LGT RAIN  42  40  92 S9        29.90F FOG
LAPEER         NOT AVBL
MASON          CLOUDY    43  42  95 SW6       29.91S FOG
MONROE         CLOUDY    48  43  81 SW12G20   29.95S
MT. CLEMENS    CLOUDY    45  44  97 SW14G21   29.93S FOG
PONTIAC        DRIZZLE   41  38  89 SW9       29.92F FOG
PORT HOPE        N/A     41  37  86 SW9G17    29.85R
PORT HURON     CLOUDY    41  37  87 SW7       29.93F
TRI CITIES     CLOUDY    41  38  89 SW14      29.89R FOG
YPSILANTI      CLOUDY    46  39  76 SW8       29.96F
$$
MIZ043>046-050>051-056>058-064>065-071>073-077>080-222300-
SOUTHWEST LOWER MICHIGAN

CITY           SKY/WX    TMP DP  RH WIND       PRES   REMARKS
BATTLE CREEK   LGT RAIN  44  41  89 SW16      29.92R FOG
BENTON HARBOR  CLOUDY    46  44  93 S9        29.89F FOG
BIG RAPIDS     FOG       38  38 100 S6        29.82F VSB 1/4
COLDWATER      LGT RAIN  47  45  92 SW13      29.93S
HOLLAND        CLOUDY    46  43  89 SW15G26   29.88S
GRAND RAPIDS   FOG       40  38  93 SW13      29.89R VSB 3/4
KALAMAZOO      CLOUDY    43  40  89 S13       29.92S FOG
MARSHALL       CLOUDY    44  42  93 SW13      29.92R
MUSKEGON       CLOUDY    45  41  86 SW16G26   29.86S FOG
$$
MIZ016>042-222300-
NORTHERN LOWER MICHIGAN

CITY           SKY/WX    TMP DP  RH WIND       PRES   REMARKS
ALPENA         CLOUDY    40  37  89 SW8       29.79S
BEAVER ISLAND  CLOUDY    40  37  90 SW17      29.75S FOG
BELLAIRE       CLOUDY    39  38  94 S5        29.79S FOG
CADILLAC       FOG       36  36  99 SW10      29.78F VSB<1/4
CHARLEVOIX     CLOUDY    39  39 100 SW7       29.79S FOG
FRANKFORT      CLOUDY    42  41  97 SW9G17    29.79S FOG
GAYLORD        FOG       37  36  96 SW15G22   29.76R VSB 1/2
GRAYLING       FOG       38  38 100 SW7       29.80S VSB 1/2
HARBOR SPRINGS CLOUDY    38  38  98 SW8       29.76S FOG
HOUGHTON LAKE  FOG       37  36  96 SW10      29.81F VSB 1/4
MANISTEE       CLOUDY    43  39  87 SW7       29.81S
OSCODA         FOG       37  37  99 SW8       29.81F VSB 1
PELLSTON       CLOUDY    39  38  96 SW9       29.76S FOG
TRAVERSE CITY  CLOUDY    40  38  93 VRB6      29.77S FOG
$$
MIZ007>008-015-222300-
EASTERN UPPER MICHIGAN

CITY           SKY/WX    TMP DP  RH WIND       PRES   REMARKS
KINROSS        CLOUDY    37  36  93 W9        29.74R
MACKINAC ISLAN CLOUDY    39  38  99 W12G23    29.75R FOG
NEWBERRY       CLOUDY    34  32  92 SW13      29.72S FOG
S. S. MARIE    CLOUDY    36  31  82 W7        29.74R
$$
MIZ004>006-011>014-085-222300-
CENTRAL UPPER MICHIGAN

CITY           SKY/WX    TMP DP  RH WIND       PRES   REMARKS
MANISTIQUE     CLOUDY    35  32  88 SW5       29.73S
ESCANABA       PTCLDY    37  30  75 SW8       29.72S
MENOMINEE      CLOUDY    37  34  87 SW5       29.74S
SAWYER-GWINN   MOCLDY    34  30  86 SW8       29.69R
$$
MIZ001>003-009>011-084-222300-
WESTERN UPPER MICHIGAN

CITY           SKY/WX    TMP DP  RH WIND       PRES   REMARKS
IRON MOUNTAIN  CLOUDY    36  30  79 W8        29.71R
HOUGHTON       CLOUDY    36  30  79 W5        29.67R
COPPER HARBOR    N/A     38  33  82 W5        29.67R
IRONWOOD       CLOUDY    36  32  87 S7        29.65S
$$

ABBREVIATIONS USED IN REMARKS
   TC - TEMPERATURE IN CELSIUS
  WCI - WIND CHILL INDEX
   HX - HEAT INDEX
  VSB - VISIBILITY



USA.gov is the U.S. government's official web portal to all federal, state and local government web resources and services.